contact:dominique.lefevre@mio.osupytheas.fr, maurice.libes@osupytheas.fr, didier.mallarino@osupytheas.fr
Project:EMSO http://www.emso-fr.org/EMSO-France
Depth: 2436.0 m
Title:EMSO Ligure Ouest : Data MII capteur AQUADOPP
Date,Latitude,Longitude,X_East,Y_North,Z_Up,Amplitude_X,Amplitude_Y,Amplitude_Z,Batterie,SoundSpeed,Heading,Pitch,Roll,Pressure,TIS,Speed,Direction
, degrees North, degrees East, m.s-1, m.s-1,m.s-1, 1, 1, 1, Volt, m.s-1, degree, degree, degree, dbar, degree_C, m.s-1, degree
2023-06-17T00:04:03,42.805,6.029,-0.016,0.009,-0.005,102.0,101.0,100.0,13.4,1505.2,348.9,-0.8,1.8,2471.443,13.29,0.018,299.4
2023-06-17T00:07:03,42.805,6.029,0.03,0.002,-0.007,101.0,103.0,101.0,13.4,1505.2,322.9,-0.7,1.8,2471.427,13.29,0.03,86.2
2023-06-17T00:10:03,42.805,6.029,-0.016,0.032,-0.029,101.0,101.0,101.0,13.4,1505.2,343.7,-0.8,1.8,2471.426,13.29,0.035,333.4
2023-06-17T00:13:03,42.805,6.029,0.004,0.0,-0.043,102.0,101.0,101.0,13.4,1505.2,348.2,-0.8,1.8,2471.42,13.29,0.004,90.0
2023-06-17T00:16:03,42.805,6.029,-0.023,0.015,-0.022,100.0,102.0,101.0,13.4,1505.2,321.1,-0.8,1.8,2471.435,13.29,0.027,303.1
2023-06-17T00:19:03,42.805,6.029,-0.002,-0.004,-0.024,101.0,102.0,100.0,13.4,1505.2,333.4,-0.8,1.8,2471.435,13.29,0.004,206.6
2023-06-17T00:22:03,42.805,6.029,-0.009,-0.014,-0.04,101.0,100.0,101.0,13.4,1505.2,334.4,-0.8,1.8,2471.414,13.29,0.016,212.7
2023-06-17T00:25:03,42.805,6.029,-0.003,0.004,-0.017,101.0,102.0,100.0,13.3,1505.2,342.5,-0.8,1.8,2471.369,13.29,0.005,323.1
2023-06-17T00:28:03,42.805,6.029,-0.011,0.039,-0.025,101.0,101.0,100.0,13.3,1505.2,322.7,-0.8,1.8,2471.393,13.29,0.04,344.3
2023-06-17T00:31:03,42.805,6.029,-0.033,0.006,-0.028,101.0,101.0,101.0,13.4,1505.2,340.8,-0.8,1.8,2471.392,13.29,0.033,280.3
2023-06-17T00:34:03,42.805,6.029,-0.026,0.003,-0.027,102.0,102.0,100.0,13.4,1505.2,342.2,-0.8,1.8,2471.404,13.29,0.026,276.6
2023-06-17T00:37:03,42.805,6.029,-0.018,0.017,-0.008,100.0,101.0,102.0,13.4,1505.2,326.5,-0.8,1.8,2471.36,13.29,0.024,313.4
2023-06-17T00:40:03,42.805,6.029,-0.021,0.005,-0.029,102.0,101.0,104.0,13.4,1505.2,329.0,-0.8,1.8,2471.384,13.29,0.021,283.4
2023-06-17T00:43:03,42.805,6.029,-0.009,0.02,-0.03,103.0,101.0,101.0,13.4,1505.2,339.8,-0.7,1.8,2471.345,13.29,0.021,335.8
2023-06-17T00:46:03,42.805,6.029,-0.027,0.008,-0.038,103.0,100.0,101.0,13.4,1505.2,333.4,-0.7,1.8,2471.349,13.29,0.028,286.5
2023-06-17T00:49:03,42.805,6.029,-0.02,0.024,-0.043,102.0,102.0,101.0,13.4,1505.2,349.5,-0.8,1.8,2471.373,13.29,0.031,320.2
2023-06-17T00:52:03,42.805,6.029,-0.051,0.018,-0.046,101.0,102.0,102.0,13.4,1505.2,321.8,-0.7,1.8,2471.389,13.29,0.054,289.4
2023-06-17T00:55:03,42.805,6.029,-0.023,0.017,-0.029,103.0,102.0,101.0,13.3,1505.2,346.2,-0.8,1.8,2471.374,13.29,0.028,306.5
2023-06-17T00:58:03,42.805,6.029,-0.033,0.02,-0.032,104.0,102.0,101.0,13.4,1505.2,319.6,-0.8,1.8,2471.358,13.29,0.038,301.2
2023-06-17T01:04:03,42.805,6.029,0.011,0.013,-0.006,104.0,104.0,102.0,13.4,1505.2,346.5,-0.8,1.8,2471.429,13.29,0.017,40.2
2023-06-17T01:07:03,42.805,6.029,-0.008,0.025,-0.001,102.0,103.0,102.0,13.4,1505.2,329.4,-0.8,1.8,2471.422,13.29,0.026,342.3
2023-06-17T01:10:03,42.805,6.029,-0.013,-0.005,-0.016,103.0,101.0,102.0,13.4,1505.2,343.4,-0.8,1.8,2471.408,13.29,0.013,249.0
2023-06-17T01:13:03,42.805,6.029,-0.017,0.0,-0.062,102.0,102.0,100.0,13.4,1505.2,329.9,-0.7,1.8,2471.405,13.29,0.017,270.0
2023-06-17T01:16:03,42.805,6.029,-0.007,0.014,-0.02,104.0,102.0,100.0,13.4,1505.2,330.2,-0.8,1.8,2471.386,13.29,0.015,333.4
2023-06-17T01:19:03,42.805,6.029,-0.01,0.015,-0.025,103.0,104.0,100.0,13.4,1505.2,339.3,-0.8,1.8,2471.386,13.29,0.018,326.3
2023-06-17T01:22:03,42.805,6.029,-0.029,0.014,-0.039,103.0,103.0,101.0,13.3,1505.2,329.8,-0.8,1.8,2471.418,13.29,0.032,295.8
2023-06-17T01:25:03,42.805,6.029,-0.012,0.023,-0.031,101.0,103.0,102.0,13.4,1505.2,339.7,-0.8,1.8,2471.387,13.29,0.025,332.4
2023-06-17T01:28:03,42.805,6.029,-0.025,-0.005,-0.036,104.0,102.0,103.0,13.4,1505.2,341.5,-0.8,1.8,2471.4,13.29,0.025,258.7
2023-06-17T01:31:03,42.805,6.029,-0.031,0.013,-0.046,102.0,103.0,100.0,13.4,1505.2,328.2,-0.8,1.8,2471.401,13.29,0.033,292.7
2023-06-17T01:34:03,42.805,6.029,-0.014,0.023,-0.009,102.0,103.0,101.0,13.4,1505.2,327.8,-0.7,1.8,2471.357,13.29,0.026,328.7
2023-06-17T01:37:03,42.805,6.029,-0.02,0.024,-0.035,103.0,102.0,101.0,13.3,1505.2,346.8,-0.8,1.8,2471.37,13.29,0.031,320.2
2023-06-17T01:40:03,42.805,6.029,-0.011,0.003,-0.042,102.0,102.0,100.0,13.3,1505.2,322.5,-0.8,1.8,2471.358,13.29,0.011,285.3
2023-06-17T01:43:03,42.805,6.029,-0.002,0.024,-0.017,100.0,100.0,101.0,13.4,1505.2,333.4,-0.7,1.8,2471.377,13.29,0.024,355.2
2023-06-17T01:46:03,42.805,6.029,-0.003,0.013,0.009,102.0,100.0,100.0,13.4,1505.2,326.8,-0.8,1.8,2471.378,13.29,0.013,347.0
2023-06-17T01:49:03,42.805,6.029,-0.02,0.016,-0.029,100.0,100.0,102.0,13.4,1505.2,349.7,-0.8,1.8,2471.377,13.29,0.025,308.7
2023-06-17T01:52:02,42.805,6.029,-0.007,0.011,-0.023,101.0,102.0,100.0,13.3,1505.2,340.4,-0.7,1.8,2471.396,13.29,0.013,327.5
2023-06-17T01:55:03,42.805,6.029,-0.014,0.007,-0.025,103.0,101.0,100.0,13.4,1505.2,327.8,-0.8,1.8,2471.354,13.29,0.015,296.6
2023-06-17T01:58:03,42.805,6.029,-0.031,0.024,-0.021,101.0,101.0,100.0,13.4,1505.2,344.6,-0.7,1.8,2471.36,13.29,0.039,307.7
2023-06-17T02:04:02,42.805,6.029,-0.025,0.019,-0.023,101.0,101.0,100.0,13.4,1505.2,328.8,-0.7,1.9,2471.422,13.29,0.031,307.2
2023-06-17T02:07:02,42.805,6.029,-0.014,0.022,-0.055,101.0,101.0,101.0,13.3,1505.2,347.9,-0.8,1.8,2471.377,13.29,0.026,327.5
2023-06-17T02:10:02,42.805,6.029,-0.026,0.041,-0.026,101.0,102.0,101.0,13.4,1505.2,321.4,-0.8,1.8,2471.388,13.29,0.048,327.6
2023-06-17T02:13:03,42.805,6.029,-0.029,0.007,-0.041,101.0,100.0,101.0,13.4,1505.2,327.9,-0.7,1.8,2471.362,13.29,0.029,283.6
2023-06-17T02:16:02,42.805,6.029,-0.016,0.038,-0.029,100.0,103.0,99.0,13.4,1505.2,335.2,-0.8,1.8,2471.382,13.29,0.041,337.2
2023-06-17T02:19:02,42.805,6.029,-0.025,-0.003,-0.075,101.0,101.0,101.0,13.3,1505.2,327.5,-0.8,1.8,2471.395,13.29,0.025,263.2
2023-06-17T02:22:02,42.805,6.029,-0.028,0.013,-0.048,102.0,101.0,100.0,13.4,1505.2,337.7,-0.8,1.8,2471.373,13.29,0.03,294.9
2023-06-17T02:25:02,42.805,6.029,-0.015,0.03,-0.026,101.0,102.0,101.0,13.4,1505.2,349.1,-0.7,1.8,2471.384,13.29,0.033,333.4
2023-06-17T02:28:02,42.805,6.029,-0.012,0.023,-0.035,102.0,102.0,101.0,13.4,1505.2,342.6,-0.8,1.8,2471.348,13.29,0.025,332.4
2023-06-17T02:31:02,42.805,6.029,-0.027,0.021,-0.035,102.0,101.0,101.0,13.3,1505.2,337.2,-0.7,1.8,2471.36,13.29,0.034,307.9
2023-06-17T02:34:02,42.805,6.029,-0.029,0.022,-0.028,100.0,100.0,101.0,13.4,1505.2,332.9,-0.8,1.8,2471.371,13.29,0.036,307.2
2023-06-17T02:37:02,42.805,6.029,0.014,0.019,-0.006,100.0,101.0,100.0,13.4,1505.2,346.2,-0.7,1.8,2471.371,13.29,0.023,36.4
2023-06-17T02:40:02,42.805,6.029,-0.007,-0.002,-0.029,103.0,100.0,101.0,13.4,1505.2,337.1,-0.8,1.8,2471.371,13.29,0.007,254.1
2023-06-17T02:43:02,42.805,6.029,-0.023,-0.002,-0.046,102.0,101.0,101.0,13.3,1505.2,348.9,-0.8,1.8,2471.389,13.29,0.023,265.0
2023-06-17T02:46:02,42.805,6.029,-0.041,-0.005,-0.053,102.0,102.0,100.0,13.4,1505.2,322.5,-0.7,1.8,2471.363,13.29,0.041,263.0
2023-06-17T02:49:02,42.805,6.029,-0.006,0.009,-0.01,101.0,100.0,101.0,13.4,1505.2,330.3,-0.8,1.8,2471.387,13.29,0.01,326.3
2023-06-17T02:52:02,42.805,6.029,-0.022,0.006,-0.044,102.0,105.0,100.0,13.3,1505.2,328.5,-0.8,1.8,2471.361,13.29,0.022,285.3
2023-06-17T02:55:02,42.805,6.029,-0.027,0.035,-0.036,103.0,104.0,100.0,13.4,1505.2,340.9,-0.8,1.9,2471.367,13.29,0.044,322.3
2023-06-17T02:58:02,42.805,6.029,-0.008,0.042,-0.008,103.0,102.0,102.0,13.4,1505.2,335.6,-0.8,1.8,2471.405,13.29,0.042,349.2
2023-06-17T03:04:02,42.805,6.029,-0.008,0.011,-0.031,103.0,102.0,101.0,13.3,1505.2,339.1,-0.8,1.8,2471.418,13.29,0.013,324.0
2023-06-17T03:07:02,42.805,6.029,-0.036,0.007,-0.037,103.0,100.0,102.0,13.3,1505.2,322.0,-0.8,1.8,2471.441,13.29,0.036,281.0
2023-06-17T03:10:03,42.805,6.029,-0.039,0.02,-0.031,103.0,102.0,101.0,13.3,1505.2,326.0,-0.8,1.8,2471.431,13.29,0.043,297.1
2023-06-17T03:13:03,42.805,6.029,-0.025,0.022,-0.012,103.0,102.0,101.0,13.4,1505.2,319.0,-0.8,1.8,2471.441,13.29,0.033,311.3
2023-06-17T03:16:03,42.805,6.029,-0.027,0.033,-0.014,104.0,104.0,100.0,13.4,1505.2,331.2,-0.7,1.8,2471.433,13.29,0.042,320.7
2023-06-17T03:19:03,42.805,6.029,0.0,0.017,-0.017,103.0,103.0,100.0,13.4,1505.2,340.5,-0.7,1.8,2471.437,13.29,0.017,0.0
2023-06-17T03:22:02,42.805,6.029,-0.008,0.037,0.008,103.0,102.0,102.0,13.4,1505.2,349.3,-0.8,1.8,2471.388,13.29,0.037,347.8
2023-06-17T03:25:02,42.805,6.029,-0.034,0.017,-0.012,102.0,103.0,102.0,13.3,1505.2,338.7,-0.8,1.8,2471.412,13.29,0.038,296.6
2023-06-17T03:28:02,42.805,6.029,-0.034,0.036,-0.026,103.0,102.0,102.0,13.3,1505.2,343.4,-0.8,1.8,2471.435,13.29,0.049,316.6
2023-06-17T03:31:02,42.805,6.029,-0.004,0.023,-0.007,103.0,102.0,101.0,13.4,1505.2,343.2,-0.7,1.8,2471.399,13.29,0.023,350.1
2023-06-17T03:34:02,42.805,6.029,-0.017,0.011,-0.036,103.0,102.0,101.0,13.4,1505.2,332.5,-0.8,1.8,2471.372,13.29,0.02,302.9
2023-06-17T03:37:02,42.805,6.029,-0.038,0.021,-0.039,103.0,102.0,101.0,13.4,1505.2,340.1,-0.8,1.9,2471.42,13.29,0.043,298.9
2023-06-17T03:40:03,42.805,6.029,-0.015,0.027,-0.013,102.0,103.0,101.0,13.3,1505.2,337.2,-0.8,1.8,2471.441,13.29,0.03,330.9
2023-06-17T03:43:02,42.805,6.029,-0.027,0.0,-0.042,103.0,102.0,101.0,13.3,1505.2,324.1,-0.8,1.8,2471.419,13.29,0.026,270.0
2023-06-17T03:46:02,42.805,6.029,-0.034,0.006,-0.038,102.0,102.0,101.0,13.4,1505.2,326.8,-0.8,1.8,2471.413,13.29,0.034,280.0
2023-06-17T03:49:03,42.805,6.029,-0.027,0.031,-0.016,102.0,103.0,101.0,13.4,1505.2,346.2,-0.8,1.8,2471.387,13.29,0.041,318.9
2023-06-17T03:52:02,42.805,6.029,-0.026,0.006,-0.032,103.0,103.0,101.0,13.4,1505.2,325.0,-0.8,1.8,2471.426,13.29,0.026,283.0
2023-06-17T03:55:02,42.805,6.029,-0.04,0.002,-0.058,104.0,102.0,100.0,13.4,1505.2,336.3,-0.8,1.8,2471.436,13.29,0.04,272.9
2023-06-17T03:58:03,42.805,6.029,-0.038,0.022,-0.025,103.0,102.0,101.0,13.3,1505.2,339.4,-0.7,1.8,2471.423,13.29,0.043,300.1
2023-06-17T04:04:02,42.805,6.029,-0.018,0.036,-0.008,101.0,101.0,101.0,13.4,1505.2,344.6,-0.7,1.8,2471.494,13.29,0.04,333.4
2023-06-17T04:07:02,42.805,6.029,-0.046,0.012,-0.033,102.0,102.0,101.0,13.3,1505.2,319.1,-0.8,1.8,2471.455,13.29,0.047,284.6
2023-06-17T04:10:03,42.805,6.029,-0.024,0.009,-0.071,103.0,102.0,101.0,13.4,1505.2,329.3,-0.8,1.8,2471.466,13.29,0.025,290.6
2023-06-17T04:13:03,42.805,6.029,-0.017,0.031,-0.003,103.0,102.0,101.0,13.4,1505.2,349.9,-0.8,1.8,2471.45,13.29,0.035,331.3
2023-06-17T04:16:03,42.805,6.029,-0.024,0.027,0.007,102.0,103.0,101.0,13.4,1505.2,320.1,-0.8,1.8,2471.464,13.29,0.036,318.4
2023-06-17T04:19:03,42.805,6.029,-0.022,0.019,-0.046,102.0,101.0,102.0,13.3,1505.2,338.8,-0.7,1.8,2471.438,13.29,0.029,310.8
2023-06-17T04:22:02,42.805,6.029,-0.018,0.008,-0.051,104.0,103.0,100.0,13.3,1505.2,337.1,-0.8,1.9,2471.423,13.29,0.019,294.0
2023-06-17T04:25:03,42.805,6.029,-0.018,0.037,-0.011,103.0,102.0,101.0,13.4,1505.2,346.7,-0.8,1.8,2471.456,13.29,0.041,334.1
2023-06-17T04:28:03,42.805,6.029,-0.011,0.008,-0.041,102.0,102.0,101.0,13.4,1505.2,323.8,-0.7,1.8,2471.422,13.29,0.013,306.0
2023-06-17T04:31:03,42.805,6.029,-0.026,0.026,-0.028,102.0,101.0,100.0,13.4,1505.2,333.9,-0.8,1.8,2471.466,13.29,0.036,315.0
2023-06-17T04:34:03,42.805,6.029,-0.027,0.022,0.005,101.0,102.0,101.0,13.3,1505.2,328.6,-0.8,1.8,2471.472,13.29,0.034,309.2
2023-06-17T04:37:02,42.805,6.029,-0.017,0.003,-0.029,102.0,101.0,101.0,13.4,1505.2,338.7,-0.8,1.8,2471.453,13.29,0.017,280.0
2023-06-17T04:40:03,42.805,6.029,-0.018,-0.003,-0.043,102.0,103.0,100.0,13.3,1505.2,335.3,-0.8,1.9,2471.453,13.29,0.018,260.5
2023-06-17T04:43:03,42.805,6.029,-0.012,0.016,-0.038,102.0,103.0,100.0,13.4,1505.2,331.9,-0.7,1.8,2471.484,13.29,0.02,323.1
2023-06-17T04:46:03,42.805,6.029,-0.042,0.007,-0.07,101.0,101.0,101.0,13.4,1505.2,338.2,-0.8,1.8,2471.471,13.29,0.042,279.5
2023-06-17T04:49:03,42.805,6.029,-0.003,0.029,-0.011,102.0,103.0,101.0,13.4,1505.2,333.4,-0.8,1.8,2471.451,13.29,0.029,354.1
2023-06-17T04:52:02,42.805,6.029,-0.024,0.028,-0.022,104.0,102.0,101.0,13.3,1505.2,340.8,-0.7,1.8,2471.432,13.29,0.036,319.4
2023-06-17T04:55:03,42.805,6.029,-0.024,0.012,-0.034,102.0,102.0,100.0,13.4,1505.2,335.5,-0.7,1.8,2471.423,13.29,0.026,296.6
2023-06-17T04:58:03,42.805,6.029,-0.019,0.018,-0.029,101.0,102.0,101.0,13.3,1505.2,319.1,-0.8,1.8,2471.464,13.29,0.026,313.5
2023-06-17T05:04:02,42.805,6.029,-0.021,0.018,-0.018,102.0,101.0,100.0,13.3,1505.2,333.4,-0.8,1.8,2471.517,13.28,0.027,310.6
2023-06-17T05:07:02,42.805,6.029,-0.041,0.017,-0.059,102.0,101.0,101.0,13.4,1505.2,333.4,-0.8,1.8,2471.513,13.29,0.044,292.5
2023-06-17T05:10:03,42.805,6.029,-0.034,0.018,-0.015,103.0,102.0,101.0,13.3,1505.2,331.2,-0.7,1.8,2471.486,13.29,0.038,297.9
2023-06-17T05:13:03,42.805,6.029,-0.036,0.047,-0.026,101.0,102.0,100.0,13.4,1505.2,349.7,-0.8,1.8,2471.481,13.29,0.059,322.5
2023-06-17T05:16:03,42.805,6.029,-0.033,0.005,-0.063,103.0,101.0,100.0,13.4,1505.2,325.5,-0.8,1.8,2471.477,13.29,0.033,278.6
2023-06-17T05:19:03,42.805,6.029,-0.031,0.035,-0.013,102.0,102.0,100.0,13.4,1505.2,330.8,-0.8,1.8,2471.493,13.29,0.046,318.5
2023-06-17T05:22:02,42.805,6.029,-0.021,0.031,-0.012,101.0,100.0,102.0,13.4,1505.2,348.9,-0.8,1.8,2471.484,13.29,0.037,325.9
2023-06-17T05:25:03,42.805,6.029,-0.019,0.022,-0.014,101.0,102.0,100.0,13.4,1505.2,328.8,-0.8,1.8,2471.476,13.29,0.029,319.2
2023-06-17T05:28:03,42.805,6.029,0.0,0.02,0.0,101.0,103.0,100.0,13.4,1505.2,334.5,-0.7,1.8,2471.511,13.29,0.02,0.0
2023-06-17T05:31:03,42.805,6.029,-0.044,0.01,-0.015,100.0,103.0,100.0,13.4,1505.2,320.1,-0.8,1.8,2471.492,13.29,0.045,282.8
2023-06-17T05:34:03,42.805,6.029,-0.041,0.036,-0.019,100.0,102.0,100.0,13.4,1505.2,329.0,-0.8,1.8,2471.525,13.29,0.054,311.3
2023-06-17T05:37:02,42.805,6.029,-0.031,0.03,-0.016,102.0,102.0,101.0,13.3,1505.2,341.1,-0.8,1.8,2471.493,13.29,0.043,314.1
2023-06-17T05:40:03,42.805,6.029,0.013,0.028,0.014,101.0,102.0,101.0,13.4,1505.2,343.4,-0.8,1.8,2471.475,13.29,0.03,24.9
2023-06-17T05:43:03,42.805,6.029,-0.041,0.037,-0.027,99.0,104.0,101.0,13.3,1505.2,326.6,-0.7,1.8,2471.487,13.29,0.055,312.1
2023-06-17T05:46:03,42.805,6.029,-0.024,0.015,-0.018,103.0,103.0,100.0,13.4,1505.2,331.6,-0.8,1.8,2471.556,13.29,0.028,302.0
2023-06-17T05:49:03,42.805,6.029,-0.025,0.019,-0.045,101.0,102.0,100.0,13.3,1505.2,331.4,-0.7,1.8,2471.502,13.29,0.031,307.2
2023-06-17T05:52:02,42.805,6.029,-0.029,0.061,0.018,102.0,102.0,100.0,13.4,1505.2,346.2,-0.8,1.8,2471.481,13.29,0.067,334.6
2023-06-17T05:55:03,42.805,6.029,-0.041,0.014,-0.058,103.0,100.0,99.0,13.4,1505.2,320.7,-0.7,1.8,2471.495,13.29,0.043,288.9
2023-06-17T05:58:03,42.805,6.029,-0.01,-0.009,-0.028,101.0,100.0,100.0,13.4,1505.2,326.5,-0.8,1.8,2471.508,13.29,0.013,228.0
2023-06-17T06:04:02,42.805,6.029,-0.037,0.027,-0.046,101.0,102.0,100.0,13.4,1505.2,341.9,-0.7,1.8,2471.504,13.29,0.045,306.1
2023-06-17T06:07:02,42.805,6.029,-0.033,0.024,-0.041,101.0,101.0,100.0,13.4,1505.2,337.7,-0.8,1.8,2471.542,13.29,0.04,306.0
2023-06-17T06:10:03,42.805,6.029,-0.001,0.004,-0.05,100.0,102.0,101.0,13.4,1505.2,328.8,-0.8,1.8,2471.563,13.29,0.004,346.0
2023-06-17T06:13:03,42.805,6.029,-0.032,0.011,-0.048,100.0,100.0,101.0,13.4,1505.2,325.0,-0.8,1.8,2471.501,13.29,0.033,289.0
2023-06-17T06:16:03,42.805,6.029,-0.067,0.02,-0.067,102.0,101.0,100.0,13.4,1505.2,329.6,-0.7,1.8,2471.491,13.29,0.069,286.6
2023-06-17T06:19:03,42.805,6.029,-0.016,0.036,-0.012,101.0,102.0,99.0,13.4,1505.2,339.3,-0.8,1.8,2471.518,13.29,0.039,336.0
2023-06-17T06:22:03,42.805,6.029,-0.014,0.04,-0.036,102.0,100.0,99.0,13.3,1505.2,350.9,-0.8,1.8,2471.469,13.29,0.042,340.7
2023-06-17T06:25:03,42.805,6.029,-0.07,0.02,-0.043,101.0,101.0,101.0,13.4,1505.2,319.4,-0.8,1.8,2471.507,13.29,0.072,285.9
2023-06-17T06:28:03,42.805,6.029,-0.029,0.024,-0.012,101.0,100.0,100.0,13.3,1505.2,335.8,-0.7,1.8,2471.494,13.29,0.037,309.6
2023-06-17T06:31:03,42.805,6.029,-0.006,0.013,-0.024,101.0,102.0,99.0,13.4,1505.2,337.4,-0.8,1.8,2471.511,13.29,0.014,335.2
2023-06-17T06:34:03,42.805,6.029,-0.025,0.034,-0.018,101.0,101.0,100.0,13.3,1505.2,339.5,-0.8,1.8,2471.491,13.29,0.042,323.7
2023-06-17T06:37:03,42.805,6.029,-0.023,0.038,-0.018,101.0,101.0,101.0,13.4,1505.2,334.7,-0.8,1.9,2471.509,13.29,0.044,328.8
2023-06-17T06:40:03,42.805,6.029,-0.031,0.042,-0.005,101.0,100.0,101.0,13.4,1505.2,338.8,-0.7,1.8,2471.476,13.29,0.052,323.6
2023-06-17T06:43:03,42.805,6.029,-0.034,0.026,-0.015,101.0,99.0,100.0,13.3,1505.2,328.4,-0.8,1.8,2471.483,13.29,0.042,307.4
2023-06-17T06:46:03,42.805,6.029,-0.018,0.031,-0.038,101.0,100.0,102.0,13.3,1505.2,347.0,-0.8,1.8,2471.472,13.29,0.035,329.9
2023-06-17T06:49:03,42.805,6.029,-0.022,0.007,-0.058,101.0,100.0,101.0,13.4,1505.2,321.9,-0.8,1.8,2471.453,13.29,0.023,287.6
2023-06-17T06:52:02,42.805,6.029,-0.016,0.036,-0.031,100.0,102.0,100.0,13.4,1505.2,336.0,-0.8,1.8,2471.472,13.29,0.039,336.0
2023-06-17T06:55:03,42.805,6.029,-0.009,0.021,-0.039,101.0,101.0,100.0,13.4,1505.2,334.4,-0.8,1.8,2471.493,13.29,0.022,336.8
2023-06-17T06:58:03,42.805,6.029,-0.024,0.019,-0.04,100.0,101.0,100.0,13.4,1505.2,337.6,-0.8,1.8,2471.484,13.29,0.03,308.4
2023-06-17T07:04:02,42.805,6.029,-0.01,0.024,-0.02,101.0,102.0,100.0,13.4,1505.2,350.3,-0.8,1.8,2471.549,13.28,0.026,337.4
2023-06-17T07:07:03,42.805,6.029,-0.028,0.059,0.003,101.0,101.0,100.0,13.4,1505.2,341.9,-0.7,1.9,2471.536,13.28,0.065,334.6
2023-06-17T07:10:03,42.805,6.029,-0.044,0.022,-0.026,101.0,101.0,102.0,13.4,1505.2,319.5,-0.8,1.8,2471.496,13.29,0.049,296.6
2023-06-17T07:13:03,42.805,6.029,-0.036,0.023,-0.04,101.0,101.0,101.0,13.4,1505.2,325.1,-0.7,1.8,2471.499,13.29,0.042,302.6
2023-06-17T07:16:03,42.805,6.029,-0.021,0.02,-0.035,103.0,100.0,101.0,13.4,1505.2,336.0,-0.8,1.8,2471.506,13.29,0.028,313.6
2023-06-17T07:19:03,42.805,6.029,-0.037,0.019,-0.027,101.0,101.0,100.0,13.4,1505.2,322.4,-0.7,1.8,2471.538,13.29,0.041,297.2
2023-06-17T07:22:03,42.805,6.029,-0.043,0.021,-0.021,102.0,101.0,100.0,13.4,1505.2,335.8,-0.8,1.8,2471.474,13.29,0.047,296.0
2023-06-17T07:25:03,42.805,6.029,-0.001,-0.005,-0.024,102.0,102.0,98.0,13.3,1505.2,331.9,-0.8,1.8,2471.472,13.29,0.005,191.3
2023-06-17T07:28:03,42.805,6.029,-0.035,0.027,-0.053,100.0,101.0,100.0,13.4,1505.2,325.3,-0.8,1.8,2471.497,13.29,0.044,307.7
2023-06-17T07:31:03,42.805,6.029,-0.052,0.025,-0.024,99.0,101.0,101.0,13.3,1505.2,327.3,-0.8,1.9,2471.484,13.29,0.057,295.7
2023-06-17T07:34:03,42.805,6.029,-0.003,0.001,-0.037,101.0,100.0,100.0,13.4,1505.2,347.0,-0.8,1.8,2471.477,13.29,0.003,288.4
2023-06-17T07:37:03,42.805,6.029,-0.054,0.023,-0.042,101.0,102.0,98.0,13.4,1505.2,321.3,-0.8,1.8,2471.507,13.29,0.058,293.1
2023-06-17T07:40:03,42.805,6.029,-0.036,0.054,0.004,101.0,100.0,100.0,13.3,1505.2,338.4,-0.8,1.8,2471.503,13.29,0.064,326.3
2023-06-17T07:43:03,42.805,6.029,-0.026,0.057,-0.003,101.0,99.0,100.0,13.4,1505.2,329.0,-0.8,1.8,2471.452,13.29,0.062,335.5
2023-06-17T07:46:03,42.805,6.029,-0.036,0.043,0.006,101.0,101.0,99.0,13.3,1505.2,332.1,-0.8,1.8,2471.445,13.29,0.056,320.1
2023-06-17T07:49:03,42.805,6.029,-0.058,0.017,-0.069,101.0,99.0,101.0,13.3,1505.2,321.4,-0.7,1.8,2471.489,13.29,0.06,286.3
2023-06-17T07:52:03,42.805,6.029,-0.038,0.033,-0.048,102.0,100.0,100.0,13.4,1505.2,334.8,-0.8,1.8,2471.47,13.29,0.05,311.0
2023-06-17T07:55:03,42.805,6.029,-0.049,0.019,-0.067,100.0,101.0,99.0,13.3,1505.2,324.3,-0.8,1.8,2471.472,13.29,0.052,291.2
2023-06-17T07:58:03,42.805,6.029,-0.04,0.039,-0.055,100.0,102.0,99.0,13.4,1505.2,350.7,-0.8,1.8,2471.454,13.29,0.055,314.3
2023-06-17T08:04:02,42.805,6.029,-0.031,0.035,-0.019,103.0,98.0,100.0,13.3,1505.2,334.4,-0.8,1.8,2471.495,13.28,0.046,318.5
2023-06-17T08:07:03,42.805,6.029,-0.041,0.044,-0.021,100.0,99.0,100.0,13.3,1505.2,327.9,-0.8,1.8,2471.504,13.29,0.06,317.0
2023-06-17T08:10:03,42.805,6.029,-0.024,0.039,-0.015,100.0,101.0,101.0,13.4,1505.2,347.2,-0.8,1.8,2471.505,13.29,0.045,328.4
2023-06-17T08:13:03,42.805,6.029,-0.001,0.004,-0.025,100.0,101.0,100.0,13.4,1505.2,332.4,-0.8,1.8,2471.464,13.29,0.004,346.0
2023-06-17T08:16:03,42.805,6.029,-0.021,0.048,-0.013,100.0,101.0,100.0,13.3,1505.2,349.3,-0.8,1.8,2471.5,13.29,0.052,336.4
2023-06-17T08:19:03,42.805,6.029,-0.02,0.037,-0.007,99.0,101.0,101.0,13.3,1505.2,334.2,-0.8,1.8,2471.461,13.29,0.042,331.6
2023-06-17T08:22:03,42.805,6.029,-0.044,0.025,-0.029,101.0,99.0,102.0,13.3,1505.2,322.3,-0.8,1.8,2471.448,13.29,0.05,299.6
2023-06-17T08:25:03,42.805,6.029,-0.035,0.018,-0.035,101.0,101.0,100.0,13.3,1505.2,337.8,-0.7,1.8,2471.431,13.29,0.039,297.2
2023-06-17T08:28:03,42.805,6.029,-0.047,0.021,-0.056,100.0,101.0,100.0,13.4,1505.2,349.1,-0.8,1.8,2471.44,13.29,0.051,294.1
2023-06-17T08:31:03,42.805,6.029,-0.026,0.018,0.019,101.0,101.0,101.0,13.3,1505.2,321.3,-0.7,1.8,2471.459,13.29,0.031,304.7
2023-06-17T08:34:03,42.805,6.029,-0.034,0.017,-0.037,101.0,100.0,100.0,13.4,1505.2,330.2,-0.7,1.8,2471.45,13.29,0.038,296.6
2023-06-17T08:37:03,42.805,6.029,-0.012,0.022,-0.045,100.0,102.0,100.0,13.4,1505.2,348.6,-0.7,1.8,2471.462,13.29,0.025,331.4
2023-06-17T08:40:03,42.805,6.029,-0.023,-0.01,-0.056,101.0,101.0,100.0,13.3,1505.2,320.7,-0.8,1.8,2471.424,13.29,0.025,246.5
2023-06-17T08:43:03,42.805,6.029,-0.028,0.034,-0.028,101.0,99.0,101.0,13.4,1505.2,329.0,-0.8,1.8,2471.448,13.29,0.044,320.5
2023-06-17T08:46:03,42.805,6.029,-0.003,0.04,-0.027,100.0,101.0,102.0,13.4,1505.2,347.2,-0.8,1.8,2471.451,13.29,0.04,355.7
2023-06-17T08:49:03,42.805,6.029,-0.055,0.023,-0.034,101.0,100.0,100.0,13.4,1505.2,326.3,-0.8,1.8,2471.471,13.29,0.059,292.7
2023-06-17T08:52:03,42.805,6.029,-0.038,0.043,-0.016,101.0,100.0,99.0,13.4,1505.2,326.3,-0.7,1.8,2471.424,13.29,0.057,318.5
2023-06-17T08:55:03,42.805,6.029,-0.021,0.03,-0.038,100.0,101.0,100.0,13.3,1505.2,349.5,-0.8,1.8,2471.45,13.29,0.036,325.0
2023-06-17T08:58:03,42.805,6.029,-0.033,0.028,-0.015,100.0,100.0,99.0,13.3,1505.2,319.7,-0.7,1.8,2471.396,13.29,0.043,310.3
2023-06-17T09:04:02,42.805,6.029,-0.009,0.026,-0.032,101.0,101.0,100.0,13.4,1505.2,343.1,-0.8,1.8,2471.505,13.29,0.027,340.9
2023-06-17T09:07:03,42.805,6.029,-0.019,0.007,-0.019,101.0,100.0,99.0,13.4,1505.2,326.3,-0.8,1.8,2471.436,13.29,0.02,290.2
2023-06-17T09:10:03,42.805,6.029,-0.017,0.004,-0.032,100.0,101.0,101.0,13.3,1505.2,339.1,-0.8,1.8,2471.444,13.29,0.017,283.2
2023-06-17T09:13:03,42.805,6.029,-0.008,0.007,-0.039,100.0,101.0,100.0,13.4,1505.2,331.0,-0.8,1.8,2471.438,13.29,0.01,311.2
2023-06-17T09:16:03,42.805,6.029,-0.039,0.012,-0.063,101.0,101.0,100.0,13.3,1505.2,335.0,-0.8,1.8,2471.475,13.29,0.04,287.1
2023-06-17T09:19:03,42.805,6.029,-0.032,0.051,0.004,103.0,101.0,100.0,13.4,1505.2,340.0,-0.8,1.8,2471.408,13.29,0.06,327.9
2023-06-17T09:22:03,42.805,6.029,-0.021,0.005,-0.05,100.0,102.0,101.0,13.4,1505.2,327.9,-0.8,1.9,2471.426,13.29,0.021,283.4
2023-06-17T09:25:03,42.805,6.029,-0.009,0.014,-0.033,101.0,101.0,100.0,13.4,1505.2,349.3,-0.8,1.8,2471.444,13.29,0.016,327.3
2023-06-17T09:28:03,42.805,6.029,-0.03,0.018,0.008,101.0,101.0,100.0,13.3,1505.2,335.5,-0.8,1.9,2471.438,13.29,0.034,301.0
2023-06-17T09:31:03,42.805,6.029,-0.012,0.018,-0.027,101.0,101.0,100.0,13.4,1505.2,336.1,-0.8,1.8,2471.409,13.29,0.021,326.3
2023-06-17T09:34:03,42.805,6.029,-0.053,0.032,-0.044,101.0,101.0,100.0,13.4,1505.2,331.6,-0.8,1.8,2471.397,13.29,0.061,301.1
2023-06-17T09:37:03,42.805,6.029,-0.031,0.027,-0.02,102.0,101.0,100.0,13.4,1505.2,349.1,-0.8,1.8,2471.424,13.29,0.041,311.1
2023-06-17T09:40:03,42.805,6.029,-0.021,0.016,-0.014,102.0,101.0,100.0,13.3,1505.2,329.2,-0.7,1.8,2471.384,13.29,0.026,307.3
2023-06-17T09:43:03,42.805,6.029,-0.025,0.0,-0.058,103.0,101.0,99.0,13.4,1505.2,347.9,-0.7,1.8,2471.392,13.29,0.025,270.0
2023-06-17T09:46:03,42.805,6.029,-0.02,0.034,0.027,101.0,100.0,102.0,13.4,1505.2,333.9,-0.7,1.8,2471.382,13.29,0.039,329.5
2023-06-17T09:49:03,42.805,6.029,-0.023,0.025,-0.041,101.0,102.0,100.0,13.3,1505.2,338.8,-0.8,1.8,2471.394,13.29,0.033,317.4
2023-06-17T09:52:03,42.805,6.029,-0.021,0.023,-0.047,101.0,101.0,101.0,13.4,1505.2,346.8,-0.8,1.8,2471.379,13.29,0.031,317.6
2023-06-17T09:55:03,42.805,6.029,-0.022,0.002,-0.038,102.0,105.0,100.0,13.4,1505.2,321.0,-0.7,1.8,2471.401,13.29,0.022,275.2